Regional Weather Roundup
Issued by NWS

Home | Current Version | Previous Version | Graphics & Text | Print | Product List | Glossary On
Versions: 1 2 3 4 5 6 7 8 9 10 11 12 13 14 15 16 17 18 19 20 21 22 23 24 25 26 27 28 29 30 31 32 33 34 35 36 37 38 39 40 41 42 43 44 45 46 47 48 49 50
698
ASUS45 KABQ 290901
RWRNM
NEW MEXICO REGIONAL WEATHER ROUNDUP
NATIONAL WEATHER SERVICE ALBUQUERQUE NM
300 AM MDT WED MAR 29 2017

NOTE: "FAIR" MEANS FEW OR NO CLOUDS BELOW 12,000 FEET AGL WITH NO
       SIGNIFICANT WEATHER OR OBSTRUCTIONS TO VISION.

      THIS PRODUCT IS RELEASED AS TWO VERSIONS.  ONE VERSION NEAR
      THE TOP OF THE HOUR CONTAINING PRELIMINARY DATA FROM ALBUQUERQUE
      AND OTHER STATIONS.  A FINAL VERSION WITH ADDITIONAL DATA IS
      ISSUED ABOUT 10 MINUTES AFTER THE HOUR.

NMZ501-503-504-510>518-291000-
NORTHWEST PLATEAU/NORTHCENTRAL MOUNTAINS

CITY           SKY/WX    TMP DP  RH WIND       PRES   REMARKS
FARMINGTON     CLOUDY    43  31  62 W10       29.87R
LOS ALAMOS     CLOUDY    36  36 100 CALM      29.90R
SANTA FE       CLOUDY    37  37 100 N7        29.86R WCI  32
TAOS             N/A     36  28  75 CALM      29.88S
ANGEL FIRE     LGT SNOW  32  28  87 N10       29.91R WCI  23

$$
NMZ402-403-502-505>509-291000-
WESTCENTRAL MOUNTAINS/SOUTHWEST MOUNTAINS

CITY           SKY/WX    TMP DP  RH WIND       PRES   REMARKS
GALLUP         CLOUDY    41  30  65 N5        29.93R
GRANTS         LGT RAIN  38  34  85 N18G26    29.92R WCI  28
SILVER CITY    FAIR      38  33  82 W5        29.92S WCI  34

$$
NMZ407-409-411-412-291000-
SOUTHERN DESERTS

CITY           SKY/WX    TMP DP  RH WIND       PRES   REMARKS
DEMING         FAIR      47  35  63 W9        29.91R
LAS CRUCES     FAIR      49  33  54 W10       29.87F
HOLLOMAN AFB   LGT RAIN  46  38  74 CALM      29.88R
ALAMOGORDO       N/A     46  37  71 N5        29.85R
T OR C         CLOUDY    49  34  56 NW8       29.84S

$$
NMZ519>523-291000-
CENTRAL VALLEYS/CENTRAL HIGHLANDS

CITY           SKY/WX    TMP DP  RH WIND       PRES   REMARKS
ALBUQUERQUE    CLOUDY    42  39  89 N6        29.87R
MORIARTY ARPT  MOCLDY    37  36  98 W3        29.87S
CLINES CORNERS LGT RAIN  35  33  92 NE10      29.86R WCI  27
BELEN          CLOUDY    43  40  87 NW10      29.87R
SOCORRO        RAIN      43  41  94 N8        29.86R

$$
NMZ524>526-539-540-291000-
SOUTHCENTRAL MOUNTAINS

CITY           SKY/WX    TMP DP  RH WIND       PRES   REMARKS
RUIDOSO        NOT AVBL

$$
NMZ527>531-291000-
NORTHEAST HIGHLANDS/NORTHEAST PLAINS

CITY           SKY/WX    TMP DP  RH WIND       PRES   REMARKS
LAS VEGAS      LGT RAIN  36  34  92 NE20G28   29.85F WCI  25
RATON          CLOUDY    38  29  70 N18       29.86F WCI  28
CLAYTON        LGT RAIN  39  39 100 N23       29.84F WCI  28

$$
NMZ532>537-291000-
EASTCENTRAL PLAINS

CITY           SKY/WX    TMP DP  RH WIND       PRES   REMARKS
TUCUMCARI      RAIN      45  42  89 N15       29.78R
CANNON AFB     NOT AVBL
CLOVIS AIRPORT MOCLDY    45  39  81 N12       29.76S

$$
NMZ028-029-538-291000-
SOUTHEAST PLAINS

CITY           SKY/WX    TMP DP  RH WIND       PRES   REMARKS
ROSWELL        FAIR      47  43  86 SW10        N/A
ARTESIA        CLOUDY    48  48 100 W6        29.78F
CARLSBAD       FAIR      47  40  76 CALM      29.76F
HOBBS          FAIR      46  39  76 W12       29.72F


$$




USA.gov is the U.S. government's official web portal to all federal, state and local government web resources and services.